Overview Statistics Trail Chart Weather Telemetry Raw packets
 

This is the latest recevied weather packets stored in our database for station/object W5CMS-13. If no packets are shown the sender has not sent any weather packets the latest 10 day(s).

<< 28 29 30 31 32 33 34 >>
Time Temp. Humidity Pressure Rain* Wind** Luminosity Snow
1788194116 33.89° C 53% 1016.7 hPa 0 mm - - -
1788193516 33.89° C 52% 1016.8 hPa 0 mm - - -
1788192918 32.78° C 54% 1016.9 hPa 0 mm - - -
1788192316 33.33° C 53% 1017 hPa 0 mm - - -
1788191716 32.78° C 53% 1016.8 hPa 0 mm - - -
1788191116 32.78° C 54% 1016.8 hPa 0 mm - - -
1788190516 32.22° C 54% 1016.8 hPa 0 mm - - -
1788189917 32.22° C 55% 1016.8 hPa 0 mm - - -
1788189316 31.67° C 56% 1016.7 hPa 0 mm - - -
1788188716 31.67° C 57% 1016.6 hPa 0 mm - - -
1788188116 31.11° C 58% 1016.6 hPa 0 mm - - -
1788187516 30.56° C 60% 1016.5 hPa 0 mm - - -
1788186917 30.56° C 61% 1016.6 hPa 0 mm - - -
1788186317 30° C 63% 1016.5 hPa 0 mm - - -
1788185717 29.44° C 65% 1016.4 hPa 0 mm - - -
1788185117 29.44° C 67% 1016.5 hPa 0 mm - - -
1788184516 29.44° C 67% 1016.5 hPa 0 mm - - -
1788183917 28.89° C 68% 1016.4 hPa 0 mm - - -
1788183321 28.89° C 69% 1016.3 hPa 0 mm - - -
1788182717 28.33° C 70% 1016.1 hPa 0 mm - - -
1788182116 27.78° C 72% 1016 hPa 0 mm - - -
1788181516 27.78° C 72% 1015.8 hPa 0 mm - - -
1788180926 27.78° C 73% 1015.6 hPa 0 mm - - -
1788180316 27.22° C 74% 1015.5 hPa 0 mm - - -
1788179716 27.22° C 74% 1015.4 hPa 0 mm - - -

* Rain latest hour (hover to see other rain measurements)
** Current wind speed in m/s (hover to see current wind gust speed)